sat.trackr.live / text

‹ back to catalog

STARLINK-34645

NORAD 64766 · 2025-147M

PAYLOAD ACTIVE UNKNOWN

§ Identity

Operator
Country
US
Launch date
2025-07-08
Launch site
AFETR
Launch vehicle
Mass (kg)
RCS (m²)

Purposes: comms

External: N2YO · Heavens-Above · Gunter

§ Orbital elements

Epoch: 2026-09-20T03:56:57.424128Z

Period
93.85 min
Inclination
53.1614°
Eccentricity
0.0001516
Mean motion
15.34412450 rev/d
Perigee alt
461.6 km
Apogee alt
463.7 km
Semi-major
6,840.8 km
B*
6.6471e-4
RAAN
58.9464°
Arg perigee
81.5673°
Mean anomaly
278.5501°
Rev number
6,853

§ Raw data

STARLINK-346451 64766U 25147M   26263.16455352  .00022157  00000+0  66471-3 0  99912 64766  53.1614  58.9464 0001516  81.5673 278.5501 15.34412450 68539

JSON: /api/v1/satellites/64766 · /tle

For live sub-satellite position, see the globe view (requires WebGL).

§ Visibility from observer

Set your observer location to see the next 7 days of passes ≥ 10°. The values pass through the URL so the page stays shareable.

No JS? Fill the form by hand. The geolocation button needs JavaScript.